Retour au catalogue

USA 40 R/B DEB

LostHEO
NORAD 23378·DEBRIS·🇺🇸 United States

Lancé Aug 8, 1989 depuis Cape Canaveral Space Force Station

Loading…

Prochains Passages (prochaines 24 heures)

TLE

PériméSource: Space-Track

Époque: Jul 13, 2024, 21:00 UTC

1 23378U 89061BA  24195.87516293  .00010979  00000-0  59331-2 0  9998
2 23378  56.9576  26.1594 2999071 231.8448  97.2487  8.96096002130682

Suivez USA 40 R/B DEB en temps réel avec AllMySat

Download on the App Store